| time (UTC) | temp F | wind direction | speed MPH | gust MPH | rain 1hr in | rain 24hr in | rain mn in | humidity % | barometer mb |
| 20260901071537 | 67 | 0 | 0.0 | 2.0 | 0.00 | 0.14 | 0.00 | 97 | 1017.3 |
| 20260901070037 | 67 | 0 | 0.0 | 1.0 | 0.00 | 0.14 | 0.00 | 97 | 1017.4 |
| 20260901064536 | 67 | 112 | 0.0 | 1.0 | 0.00 | 0.14 | 0.00 | 97 | 1017.4 |
| 20260901063033 | 67 | 0 | 0.0 | 3.0 | 0.00 | 0.14 | 0.00 | 97 | 1017.4 |
| 20260901061536 | 67 | 112 | 0.0 | 2.0 | 0.00 | 0.14 | 0.00 | 97 | 1017.4 |
| 20260901060041 | 67 | 0 | 0.0 | 3.0 | 0.00 | 0.14 | 0.00 | 97 | 1017.4 |
| 20260901054535 | 67 | 0 | 1.0 | 4.0 | 0.00 | 0.14 | 0.00 | 97 | 1017.5 |
| 20260901053039 | 68 | 84 | 0.0 | 2.0 | 0.00 | 0.14 | 0.00 | 96 | 1017.5 |
| 20260901051542 | 68 | 0 | 0.0 | 3.0 | 0.00 | 0.14 | 0.00 | 97 | 1017.6 |
| 20260901050037 | 68 | 0 | 0.0 | 3.0 | 0.00 | 0.14 | 0.00 | 96 | 1017.7 |
| 20260901044549 | 68 | 0 | 0.0 | 0.0 | 0.00 | 0.14 | 0.00 | 96 | 1017.8 |
| 20260901043038 | 69 | 0 | 0.0 | 0.0 | 0.00 | 0.14 | 0.00 | 96 | 1017.8 |
| 20260901041534 | 69 | 0 | 0.0 | 1.0 | 0.00 | 0.14 | 0.00 | 95 | 1017.8 |
| 20260901040047 | 69 | 0 | 0.0 | 2.0 | 0.00 | 0.14 | 0.00 | 95 | 1017.9 |
| 20260901034536 | 70 | 0 | 0.0 | 6.0 | 0.00 | 0.14 | 0.14 | 95 | 1017.8 |
| 20260901033052 | 70 | 0 | 0.0 | 2.0 | 0.00 | 0.14 | 0.14 | 95 | 1017.8 |
| 20260901031536 | 70 | 0 | 0.0 | 1.0 | 0.00 | 0.14 | 0.14 | 94 | 1017.8 |
| 20260901030037 | 70 | 0 | 0.0 | 2.0 | 0.00 | 0.14 | 0.14 | 95 | 1018.0 |
| 20260901024534 | 70 | 0 | 0.0 | 2.0 | 0.00 | 0.14 | 0.14 | 94 | 1018.2 |
| 20260901023039 | 71 | 0 | 0.0 | 1.0 | 0.00 | 0.14 | 0.14 | 93 | 1018.3 |
| 20260901021551 | 71 | 0 | 0.0 | 2.0 | 0.00 | 0.14 | 0.14 | 93 | 1018.3 |
| 20260901020035 | 71 | 0 | 0.0 | 1.0 | 0.00 | 0.14 | 0.14 | 93 | 1018.4 |
| 20260901014536 | 72 | 0 | 0.0 | 1.0 | 0.00 | 0.14 | 0.14 | 92 | 1018.4 |
| 20260901013048 | 72 | 0 | 0.0 | 3.0 | 0.00 | 0.14 | 0.14 | 92 | 1018.5 |
| 20260901011542 | 72 | 84 | 0.0 | 2.0 | 0.00 | 0.14 | 0.14 | 92 | 1018.6 |
| 20260901010036 | 72 | 0 | 0.0 | 1.0 | 0.00 | 0.14 | 0.14 | 92 | 1018.5 |
| 20260901004538 | 72 | 0 | 0.0 | 2.0 | 0.00 | 0.14 | 0.14 | 92 | 1018.2 |
| 20260901003040 | 72 | 84 | 0.0 | 3.0 | 0.00 | 0.14 | 0.14 | 90 | 1018.0 |
| 20260901001534 | 72 | 84 | 0.0 | 3.0 | 0.00 | 0.14 | 0.14 | 90 | 1017.8 |
| 20260901000035 | 73 | 95 | 0.0 | 4.0 | 0.00 | 0.14 | 0.14 | 89 | 1017.6 |
| 20260831234533 | 74 | 84 | 2.0 | 4.0 | 0.00 | 0.14 | 0.14 | 87 | 1017.7 |
| 20260831233033 | 74 | 24 | 1.0 | 3.0 | 0.00 | 0.14 | 0.14 | 86 | 1017.6 |
| 20260831231532 | 76 | 17 | 1.0 | 3.0 | 0.00 | 0.14 | 0.14 | 84 | 1017.7 |
| 20260831230032 | 76 | 166 | 1.0 | 4.0 | 0.00 | 0.14 | 0.14 | 85 | 1017.9 |
| 20260831224532 | 75 | 158 | 3.0 | 6.0 | 0.00 | 0.14 | 0.14 | 85 | 1018.0 |
| 20260831223038 | 76 | 78 | 2.0 | 8.0 | 0.00 | 0.14 | 0.14 | 83 | 1018.0 |
| 20260831221547 | 78 | 258 | 5.0 | 10.0 | 0.00 | 0.14 | 0.14 | 80 | 1017.7 |
| 20260831220033 | 78 | 262 | 4.0 | 11.0 | 0.00 | 0.14 | 0.14 | 78 | 1017.8 |
| 20260831214534 | 79 | 261 | 5.0 | 11.0 | 0.00 | 0.14 | 0.14 | 77 | 1017.8 |
| 20260831213035 | 79 | 261 | 5.0 | 10.0 | 0.00 | 0.14 | 0.14 | 76 | 1017.8 |
| 20260831211544 | 79 | 275 | 6.0 | 13.0 | 0.00 | 0.14 | 0.14 | 76 | 1018.0 |
| 20260831210035 | 80 | 254 | 2.0 | 10.0 | 0.00 | 0.14 | 0.14 | 77 | 1018.2 |
| 20260831204530 | 80 | 293 | 5.0 | 10.0 | 0.00 | 0.14 | 0.14 | 76 | 1018.3 |
| 20260831203044 | 79 | 271 | 6.0 | 10.0 | 0.00 | 0.14 | 0.14 | 76 | 1018.4 |
| 20260831201543 | 80 | 298 | 3.0 | 8.0 | 0.00 | 0.14 | 0.14 | 79 | 1018.6 |
| 20260831200035 | 79 | 255 | 4.0 | 10.0 | 0.00 | 0.14 | 0.14 | 76 | 1018.7 |
| 20260831194538 | 79 | 251 | 6.0 | 13.0 | 0.00 | 0.14 | 0.14 | 76 | 1018.7 |
| 20260831193032 | 78 | 321 | 5.0 | 11.0 | 0.00 | 0.14 | 0.14 | 78 | 1019.0 |
| 20260831191534 | 77 | 277 | 4.0 | 11.0 | 0.00 | 0.14 | 0.14 | 78 | 1019.2 |
| 20260831190042 | 78 | 304 | 4.0 | 10.0 | 0.00 | 0.14 | 0.14 | 78 | 1019.4 |
| 20260831184537 | 77 | 278 | 0.0 | 6.0 | 0.00 | 0.14 | 0.14 | 79 | 1019.5 |
| 20260831183041 | 77 | 341 | 2.0 | 7.0 | 0.00 | 0.14 | 0.14 | 79 | 1019.5 |
| 20260831181532 | 75 | 291 | 4.0 | 8.0 | 0.00 | 0.14 | 0.14 | 79 | 1019.7 |
| 20260831180042 | 74 | 135 | 0.0 | 3.0 | 0.00 | 0.14 | 0.14 | 81 | 1019.8 |
| 20260831174536 | 74 | 160 | 0.0 | 4.0 | 0.00 | 0.14 | 0.14 | 81 | 1020.0 |
| 20260831173033 | 73 | 295 | 2.0 | 6.0 | 0.00 | 0.14 | 0.14 | 81 | 1020.2 |
| 20260831171532 | 73 | 0 | 1.0 | 3.0 | 0.00 | 0.14 | 0.14 | 85 | 1020.2 |
| 20260831170037 | 73 | 192 | 1.0 | 4.0 | 0.00 | 0.14 | 0.14 | 84 | 1020.4 |
| 20260831164541 | 72 | 0 | 1.0 | 5.0 | 0.00 | 0.14 | 0.14 | 84 | 1020.6 |
| 20260831163036 | 71 | 57 | 2.0 | 4.0 | 0.00 | 0.14 | 0.14 | 86 | 1020.7 |
| 20260831161541 | 71 | 74 | 0.0 | 3.0 | 0.00 | 0.14 | 0.14 | 87 | 1020.9 |
| 20260831160036 | 70 | 332 | 2.0 | 3.0 | 0.00 | 0.14 | 0.14 | 89 | 1020.8 |
| 20260831154557 | 70 | 349 | 1.0 | 3.0 | 0.00 | 0.14 | 0.14 | 89 | 1020.6 |
| 20260831153039 | 70 | 0 | 0.0 | 2.0 | 0.00 | 0.14 | 0.14 | 90 | 1020.6 |
| 20260831151533 | 69 | 166 | 0.0 | 3.0 | 0.00 | 0.14 | 0.14 | 90 | 1020.6 |
| 20260831150038 | 69 | 0 | 0.0 | 2.0 | 0.01 | 0.14 | 0.14 | 91 | 1020.6 |
| 20260831144536 | 68 | 62 | 0.0 | 3.0 | 0.02 | 0.14 | 0.14 | 93 | 1020.7 |
| 20260831143036 | 68 | 338 | 1.0 | 4.0 | 0.03 | 0.14 | 0.14 | 94 | 1020.5 |
| 20260831141537 | 67 | 360 | 1.0 | 3.0 | 0.07 | 0.14 | 0.14 | 95 | 1020.2 |
| 20260831140034 | 67 | 0 | 0.0 | 1.0 | 0.07 | 0.13 | 0.13 | 96 | 1020.2 |
| 20260831134535 | 66 | 0 | 0.0 | 3.0 | 0.06 | 0.12 | 0.12 | 96 | 1020.6 |
| 20260831133036 | 66 | 131 | 0.0 | 2.0 | 0.07 | 0.11 | 0.11 | 96 | 1020.8 |
| 20260831131536 | 66 | 0 | 1.0 | 3.0 | 0.07 | 0.07 | 0.07 | 96 | 1021.2 |
| 20260831130036 | 65 | 267 | 1.0 | 3.0 | 0.06 | 0.06 | 0.06 | 96 | 1021.3 |
| 20260831124535 | 64 | 0 | 0.0 | 2.0 | 0.06 | 0.06 | 0.06 | 96 | 1021.0 |
| 20260831123037 | 64 | 162 | 1.0 | 2.0 | 0.04 | 0.04 | 0.04 | 96 | 1020.8 |
| 20260831121535 | 64 | 162 | 0.0 | 2.0 | 0.00 | 0.00 | 0.00 | 96 | 1020.7 |
| 20260831120040 | 64 | 0 | 0.0 | 1.0 | 0.00 | 0.00 | 0.00 | 96 | 1020.7 |
| 20260831114533 | 64 | 0 | 0.0 | 2.0 | 0.00 | 0.00 | 0.00 | 96 | 1020.5 |
| 20260831113034 | 64 | 0 | 0.0 | 2.0 | 0.00 | 0.00 | 0.00 | 97 | 1020.3 |
| 20260831111535 | 63 | 0 | 0.0 | 2.0 | 0.00 | 0.00 | 0.00 | 97 | 1020.4 |
| 20260831110041 | 63 | 0 | 0.0 | 2.0 | 0.00 | 0.00 | 0.00 | 97 | 1020.1 |
| 20260831104535 | 63 | 0 | 0.0 | 0.0 | 0.00 | 0.00 | 0.00 | 97 | 1020.3 |
| 20260831103033 | 63 | 0 | 0.0 | 2.0 | 0.00 | 0.00 | 0.00 | 96 | 1020.2 |
| 20260831101544 | 63 | 162 | 0.0 | 2.0 | 0.00 | 0.00 | 0.00 | 96 | 1020.0 |
| 20260831100037 | 63 | 162 | 1.0 | 2.0 | 0.00 | 0.00 | 0.00 | 96 | 1020.0 |
| 20260831094532 | 63 | 0 | 0.0 | 1.0 | 0.00 | 0.00 | 0.00 | 96 | 1020.0 |
| 20260831093035 | 63 | 0 | 0.0 | 1.0 | 0.00 | 0.00 | 0.00 | 96 | 1019.7 |
| 20260831091550 | 63 | 0 | 0.0 | 2.0 | 0.00 | 0.00 | 0.00 | 96 | 1020.1 |
| 20260831090034 | 63 | 162 | 0.0 | 2.0 | 0.00 | 0.00 | 0.00 | 96 | 1020.1 |
| 20260831084533 | 64 | 162 | 0.0 | 1.0 | 0.00 | 0.00 | 0.00 | 96 | 1019.9 |
| 20260831083034 | 64 | 0 | 0.0 | 2.0 | 0.00 | 0.00 | 0.00 | 96 | 1019.6 |
| 20260831081538 | 64 | 0 | 0.0 | 0.0 | 0.00 | 0.00 | 0.00 | 96 | 1019.6 |
| 20260831080057 | 63 | 0 | 0.0 | 0.0 | 0.00 | 0.00 | 0.00 | 96 | 1019.5 |
| 20260831074532 | 63 | 162 | 2.0 | 4.0 | 0.00 | 0.00 | 0.00 | 96 | 1019.5 |
| 20260831073058 | 64 | 0 | 0.0 | 3.0 | 0.00 | 0.00 | 0.00 | 96 | 1019.5 |